Flag for Germany Weather past 2 weeks in Rendsburg, Schleswig-Holstein, Germany

Now
57 °F

Scattered clouds.


Feels Like: 53 °F
Forecast: 45 / 56 °F
Wind: 18 mph from West

Location: Hohn

Current Time: May 28, 2015 at 5:16:08 PM

Latest Report: May 28, 2015 at 4:20 PM


Visibility: N/A

Pressure: 29.80 "Hg

Humidity: 59%

Dew point: 43 °F

Location of RendsburgLocation

Historic Weather in Rendsburg — Graph

°F

Rendsburg temperature yesterday

Maximum temperature yesterday: 57 °F (at 2:20 PM)
Minimum temperature yesterday: 48 °F (at 12:20 AM)
Average temperature yesterday: 52 °F

Past Weeks' High & Low Weather Summary

 TemperatureHumidityPressure
High64 °F (May 22, 3:20 PM)100% (May 18, 10:20 PM)30.27 "Hg (May 18, 10:20 PM)
Low36 °F (May 24, 5:20 AM)47% (May 17, 4:20 PM)29.53 "Hg (May 18, 11:20 PM)
Average50 °F76%29.99 "Hg
* Reported May 13 3:20 PM — May 28 3:20 PM, Rendsburg, Weather by CustomWeather, © 2015

Note: Actual official high and low records may vary slightly from our data, if they occured in-between our weather recording intervals... More about our weather records

Advertising

Rendsburg weather history for previous 24 hours

 ConditionsComfort  
Time TempWeatherWind HumidityBarometerVisibility
3:20 PM
Thu, May 28
55 °FPartly sunny.17 mph63%29.80 "HgN/A
2:20 PM57 °FPartly sunny.15 mph72%29.80 "HgN/A
1:20 PM52 °FSprinkles. Scattered clouds.17 mph88%29.80 "Hg3 mi
12:20 PM54 °FBroken clouds.8 mph88%29.77 "Hg5 mi
11:20 AM55 °FBroken clouds.13 mph77%29.77 "HgN/A
10:20 AM55 °FPartly sunny.13 mph72%29.77 "HgN/A
9:20 AM55 °FPartly sunny.12 mph67%29.80 "HgN/A
8:20 AM54 °FPartly sunny.13 mph67%29.80 "HgN/A
7:20 AM54 °FPartly sunny.10 mph67%29.80 "HgN/A
6:20 AM52 °FPartly sunny.9 mph72%29.83 "HgN/A
5:20 AM52 °FPassing clouds.7 mph72%29.83 "Hg6 mi
4:20 AM52 °FPartly cloudy.7 mph72%29.89 "HgN/A
3:20 AM52 °FPartly cloudy.8 mph72%29.89 "HgN/A
2:20 AM52 °FPassing clouds.7 mph72%29.92 "HgN/A
1:20 AM52 °FPassing clouds.5 mph72%29.95 "HgN/A
11:20 PM
Wed, May 27
52 °FPartly cloudy.2 mph72%30.01 "HgN/A
10:20 PM52 °FPartly sunny.2 mph72%30.04 "HgN/A
9:20 PM54 °FPartly sunny.2 mph67%30.04 "HgN/A
8:20 PM54 °FPartly sunny.2 mph63%30.07 "HgN/A
7:20 PM55 °FScattered clouds.9 mph59%30.07 "HgN/A
6:20 PM55 °FScattered clouds.10 mph55%30.09 "HgN/A
5:20 PM55 °FPartly sunny.13 mph59%30.12 "HgN/A
Weather by CustomWeather, © 2015

See weather overviewHow to use our weather pages